Regional Weather Roundup
Issued by NWS Charleston, SC

Current Version | Previous Version | Graphics & Text | Print | Product List | Glossary On
Versions: 1 2 3 4 5 6 7 8 9 10 11 12 13 14 15 16 17 18 19 20 21 22 23 24 25 26 27 28 29 30 31 32 33 34 35 36 37 38 39 40 41 42 43 44 45 46 47 48 49 50
276
ASUS42 KCHS 181827
RWRCHS

REGIONAL WEATHER ROUNDUP
NATIONAL WEATHER SERVICE CHARLESTON SC
100 PM EST WED JAN 18 2017

NOTE: "FAIR" INDICATES FEW OR NO CLOUDS BELOW 12,000 FEET WITH NO
SIGNIFICANT WEATHER AND/OR OBSTRUCTIONS TO VISIBILITY.

NOT ALL STATIONS ARE QUALITY CONTROLLED. USE DATA WITH CAUTION...
ESPECIALLY DEWPOINT OBSERVATIONS.

SCZ027-030-031-034>040-042>050-181900-
...SOUTHEAST SOUTH CAROLINA...

CITY           SKY/WX    TMP DP  RH WIND       PRES   REMARKS
N CHARLESTON   MOSUNNY   77  58  51 W16G26    30.01F
6HR MIN TEMP:  59; 6HR MAX TEMP:  77;

WATERFRONT PRK   N/A     72  63  73 W7        30.02F
MOUNT PLEASANT FAIR      75  63  64 SW12G17   30.01F
JOHNS ISLAND   FAIR      77  63  61 SW9G18    30.01F
PINOPOLIS        N/A    N/A N/A N/A W15       29.93F
MONCKS CORNER  FAIR      75  57  53 W9G22     30.00F
SUMMERVILLE    FAIR      77  61  57 SW13G20   30.02F
BEAUFORT MCAS  MOSUNNY   76  61  59 W17       30.06F
6HR MIN TEMP:  56; 6HR MAX TEMP:  77;

BEAUFORT ARPT  FAIR      73  61  64 W16       30.06F
HILTON HEAD IS MOSUNNY   73  63  68 SW10      30.08F
WALTERBORO     MOCLDY    75  59  57 W16G25    30.04F
ALLENDALE      FAIR      75  61  60 W9G18     30.02F

...SOUTHERN MIDLANDS AND PEE DEE...

CITY           SKY/WX    TMP DP  RH WIND       PRES   REMARKS
GEORGETOWN     FAIR      75  59  57 W17G23    29.98F
KINGSTREE      FAIR      77  55  47 W10G21    29.96F
ORANGEBURG     PTSUNNY   76  58  53 W16G25    30.02F
6HR MIN TEMP:  60; 6HR MAX TEMP:  77;

BARNWELL       MOCLDY    77  63  61 W13G21    30.03F
AIKEN          FAIR      75  55  50 W15G22    30.06F
MANNING        FAIR      77  57  50 W6G17     29.98F
COLUMBIA       MOSUNNY   79  57  46 W14       29.99F
6HR MIN TEMP:  63; 6HR MAX TEMP:  79;

SUMTER         MOSUNNY   78  55  44 W15       29.95F
6HR MIN TEMP:  62; 6HR MAX TEMP:  78;

FLORENCE       MOSUNNY   76  59  55 W13G20    29.96F
6HR MIN TEMP:  63; 6HR MAX TEMP:  77;

MYRTLE BEACH   PTSUNNY   77  59  53 W12G22    29.98F
N MYRTLE BEACH MOSUNNY   75  59  57 W10G22    29.94F
6HR MIN TEMP:  63; 6HR MAX TEMP:  75;


$$

GAZ063-065-086>088-099>101-113>116-118-119-134>141-150-181900-
...SOUTHEAST GEORGIA...

CITY           SKY/WX    TMP DP  RH WIND       PRES   REMARKS
SAVANNAH ARPT  PTSUNNY   76  59  55 W14G20    30.09F
6HR MIN TEMP:  57; 6HR MAX TEMP:  75;

HUNTER AAF     PTSUNNY   75  61  60 W16       30.07F
6HR MIN TEMP:  58; 6HR MAX TEMP:  74;

FORT STEWART   PTSUNNY   73  61  65 SW14      30.10F
6HR MIN TEMP:  54; 6HR MAX TEMP:  73; 6HR PCP: TRACE;

STATESBORO     MOSUNNY   77  64  63 W14G20    30.09F
SYLVANIA       PTCLDY   N/A N/A N/A W9        30.07F
CLAXTON        FAIR      74  74 100 W15G21    30.11F

...CSRA...CENTRAL AND FAR SOUTHEAST GEORGIA...

CITY           SKY/WX    TMP DP  RH WIND       PRES   REMARKS
THOMSON        MOSUNNY   79  63  57 W10G16    30.09F
AUGUSTA-BUSH   PTSUNNY   79  59  50 W22G28    30.04F
6HR MIN TEMP:  58; 6HR MAX TEMP:  80;

AUGUSTA-DANIEL MOSUNNY   76  57  51 NW15G25   30.06F
SWAINSBORO     CLOUDY    72  61  68 MISG      30.11F
VIDALIA        PTSUNNY   73  64  73 NW9       30.11F
EASTMAN        CLOUDY    75  50  41 NW8       30.14F
HAZLEHURST     FAIR      74  63  67 W5        30.12F
ALMA           PTSUNNY   73  62  68 W12       30.14F
6HR MIN TEMP:  56; 6HR MAX TEMP:  73;

WAYCROSS       CLOUDY    77  67  72 NW10      30.13F
JESUP          CLOUDY    73  59  60 NW16G25   30.12F
BAXLEY         CLOUDY    73  66  78 W10       30.12F
BRUNSWICK      MOSUNNY   77  64  65 W9G24     30.12F
SAINT SIMONS   MOSUNNY   76  59  55 W10G22    30.11F
6HR MIN TEMP:  57; 6HR MAX TEMP:  77;


$$

SCZ027-028-034-036>038-045-046-048>050-GAZ119-141-181900-
...LAKE AND SUPPLEMENTAL COASTAL OBSERVATIONS...

STATION/POSITION TIME  TEMP    WIND        PRES    WAVE   SWELL
                       AIR SEA DIR/SP/G            HT/PER HT/PER/DIR
                 (UTC) (F)     (DEG/KT/KT) (MB)    (FT/S) (FT/S/D)
WINYAH BAY       NOT AVBL
LAKE MURRAY      1750   71     270/ 15/ 23 1015.6F
ACE BASIN NERRS  1645   69     250/  6     1019.0
FORT PULASKI     1800   69 57  280/ 13/ 17 1019.1
SAPELO ISLAND    1700   74     300/ 12     1021.0

$$

ANZ835-935-AMZ111-154-330-350-352-354-370-450-454-472-181900-
...C-MAN AND BUOY OBSERVATIONS...

STATION/POSITION TIME  TEMP    WIND        PRES    WAVE   SWELL
                       AIR SEA DIR/SP/G            HT/PER HT/PER/DIR
                 (UTC) (F)     (DEG/KT/KT) (MB)    (FT/S) (FT/S/D)
BUOY 41004       1750   67 72  250/ 19/ 25 1016.4F   4/ 5   2/170/ 9
BUOY 41008       1750   62 60  290/  6/  6 1019.5F   2/10   2/ 90/10
FOLLY BEACH CMAN 1800   62     220/ 17/ 19 1017.2F
CAPERS NEARSHORE 1708   58 55  230/ 12/ 16 1017.5F
FRIPP NEARSHORE  1808   61 57  230/ 10/ 12 1017.7F


STATION/POSITION TIME  TEMP    WIND        PRES    WAVE   SWELL
                       AIR SEA DIR/SP/G            HT/PER HT/PER/DIR
                 (UTC) (F)     (DEG/KT/KT) (MB)    (FT/S) (FT/S/D)
5E ST. MARYS GA  1800      63                N/A     1/11
FRYING PAN BUOY  1810   69 71  240/ 21/ 25 1014.0
BUOY 41025       1750   65 72  270/ 21/ 25 1010.6F   9/ 8   2/170/10
CAPE LOOKOUT NC  1800   60     260/ 14/ 17 1011.9F
BUOY 41002       1750   72 72  260/ 21/ 27 1015.5F   7/ 7
BUOY 41010       NOT AVBL
ST AUGUSTINE FL  1800   76 62  260/ 11/ 16 1020.8F


$$




USA.gov is the U.S. government's official web portal to all federal, state and local government web resources and services.